SL-14 DEB, 45273

Orbit data source: Space-Track

SL-14 DEB, 45273 is space debris in LEO originally from a launch on Thu, 15 Aug 1991 UTC launched from the Plesetsk Missile And Space Complex (PKMTR). Debris objects in space refer to the collection of defunct objects orbiting the Earth. Examples of debris include non-operational satellites, rocket bodies, and fragments generated from explosions, collisions, or faulty payload assembly.

Loading next visibility...
Identifier
45273, 1991-056K
Orbit
LEO
Country
Flag of CISCIS
Related business
Manufacturer
Unknown
Mission
Spacecraft
Bus & Motor
Unknown
Mass
Unknown
Launch date (UTC)
1991-08-15 (35 years ago)
Launch vehicle
Unknown
Launch site
Plesetsk Missile And Space Complex (PKMTR)
Object type
Payload
Rocket body
Debris
Shape & HBR
Unknown shape, 0.1 m
Radar Cross Section
Small (<0.1 m²)

Expand to show TLE details & history
Last TLE update: 1 day ago

TLE from 1 day ago
0 SL-14 DEB
1 45273U 91056K   26256.71687348  .00001277  00000-0  19697-2 0  9998
2 45273  82.5672 356.7126 0113668 257.7804 101.0587 13.48147848322851
Epoch: 2026-09-13T17:12Z
TLE epoch observation values (Epoch: 2026-09-13T17:12:17.868Z)
Latitude
-0.00007°
Longitude
105.93062°
Altitude
1,099.12 km
Speed
7.294 km/s
True Right ascension
23h 46m 51s
True Declination
0° 00' 00"
Sunlit
Object was in full shadow at epoch
Visualization orbit readout
Latitude
Unknown
Longitude
Unknown
Altitude
Unknown
Speed
Unknown
Apparent Right ascension
Unknown
Apparent Declination
Unknown
Sunlit
N/A
Visualization observer readout
Local Sidereal Time
13:37:57
Azimuth
Unknown
Elevation
Unknown
Doppler factor
Unknown
Orbital elements
Apogee altitude
1,161.014 km
Perigee altitude
991.548 km
Semi-major axis
7,454.418 km
Eccentricity
0.01137
Inclination
82.5672°
RAAN
356.7126°
Arg. of periapsis
257.7804°
True anomaly
102.33347°
Mean anomaly
101.0587°
Eccentric anomaly
101.69645°
Mean motion
3.37227 °/min
Orbital period
106.75 mins
BSTAR
0.0019697
Loading maneuver chart data...
Computing Atmospheric mass density...
Loading historical data...
Loading historical data...
Loading historical data...
Loading historical data...
Loading historical data...
Loading historical data...
Loading historical data...

Documentation

Showing up to 5 results
|